User: anonymous   Login
Location: Oak Glen
(34.0495°N, 116.9470°E)
Time: 17:52:59
(UTC-08:00)
Language:

Tiangong 2 - Orbit

View from above orbital plane
View from above orbital plane
View from above satellite
View from above satellite

Ground track
Ground track

The orbit data is extracted from the following two-line orbital elements,

1 41765U 16057A   18056.36994213  .00003786  00000-0  49267-4 0  9995
2 41765  42.7853 289.4218 0003634 221.4029 113.7826 15.60460249 82504
Epoch (UTC): 25 February 2018 08:52:43
Eccentricity: 0.0003634
inclination: 42.7853°
perigee height: 384 km
apogee height: 389 km
right ascension of ascending node: 289.4218°
argument of perigee: 221.4029°
revolutions per day: 15.60460249
mean anomaly at epoch: 113.7826°
orbit number at epoch: 8250

The dashed part of the orbit path shows where the satellite is in the earth's shadow,  

DLR